Regional Weather Roundup
Issued by NWS

Home | Current Version | Previous Version | Graphics & Text | Print | Product List | Glossary On
Versions: 1 2 3 4 5 6 7 8 9 10 11 12 13 14 15 16 17 18 19 20 21 22 23 24 25 26 27 28 29 30 31 32 33 34 35 36 37 38 39 40 41 42 43 44 45 46 47 48
000
ASUS43 KDMX 192007
RWRIA

WEATHER ROUNDUP FOR IOWA
NATIONAL WEATHER SERVICE DES MOINES IA
300 PM CDT SUN OCT 19 2014

NOTE: "FAIR" INDICATES FEW OR NO CLOUDS BELOW 12,000 FEET WITH NO
SIGNIFICANT WEATHER AND/OR OBSTRUCTIONS TO VISIBILITY.

* - THESE STATIONS ARE NOT NWS STATIONS...THUS NOT UNDER NWS
QUALITY CONTROL.  THEY ALSO DO NOT REPORT WEATHER SUCH
AS PRECIPITATION OR FOG.

IAZ001>003-012>014-020>022-031>034-043>046-192100-
   NORTHWEST IOWA

CITY           SKY/WX    TMP DP  RH WIND       PRES   REMARKS
CARROLL *      SUNNY     66  46  48 SW18G26   29.93F
CHEROKEE *     SUNNY     70  48  46 SW16G22   29.89F
DENISON *      SUNNY     66  45  45 SW15G26   29.92F
LE MARS *      SUNNY     72  46  40 W8        29.91F
ORANGE CITY *  SUNNY     72  45  37 SW10      29.90F
SHELDON *      SUNNY     70  46  43 W10       29.89S
SIOUX CITY     SUNNY     74  47  38 W13       29.91F
SPENCER        SUNNY     70  45  40 SW16      29.89F
STORM LAKE *   SUNNY     70  45  40 W17G25    29.92S
$$

IAZ055>058-069>071-079>083-090>094-192100-
   SOUTHWEST IOWA

CITY           SKY/WX    TMP DP  RH WIND       PRES   REMARKS
ATLANTIC *     SUNNY     66  46  48 SW20      29.95F
AUDUBON *      SUNNY     64  43  45 SW12G18   29.96F
CLARINDA *     SUNNY     68  46  45 S10G17    30.00F
COUNCIL BLFS * SUNNY     70  48  46 SW16G23   29.95F
HARLAN  *      SUNNY     66  48  52 SW16G23   29.98F
LAMONI         SUNNY     65  46  50 SW15      30.02F
SHENANDOAH *   SUNNY     68  46  45 SW14G21   29.99F
$$

IAZ047>049-059>061-072>074-084-192100-
   CENTRAL IOWA

CITY           SKY/WX    TMP DP  RH WIND       PRES   REMARKS
AMES           PTSUNNY   66  46  48 S13G24    29.94F
ANKENY *       SUNNY     66  48  52 SW10G20   29.96F
CHARITON *     MOSUNNY   64  45  48 SW14G20   30.00F
DES MOINES     CLOUDY    65  47  52 SW13      29.97F
GRINNELL*      CLOUDY    61  45  55 SW14G20   29.98F
KNOXVILLE *    SUNNY     63  45  51 SW15G21   29.98F
MARSHALLTOWN   PTSUNNY   63  46  54 SW17G25   29.94F
PELLA *        PTSUNNY   64  46  52 SW13G22   30.00F
PERRY *          N/A     64  45  48 SW15      29.94F
$$

IAZ004>006-015-016-023>025-035-036-192100-
   NORTH CENTRAL IOWA

CITY           SKY/WX    TMP DP  RH WIND       PRES   REMARKS
ALGONA *       SUNNY     68  46  45 W22G29    29.89F
CLARION *      SUNNY     68  45  42 SW20G30   29.90F
ESTHERVILLE    SUNNY     68  44  42 SW18G26   29.86
FORT DODGE *   SUNNY     66  46  48 SW17G23   29.92F
MASON CITY     SUNNY     67  46  47 SW17      29.89F
FOREST CITY *  SUNNY     68  46  45 SW18G29   29.87F
IOWA FALLS *     N/A     66  45  45 S17G24    29.93F
$$

IAZ007>011-017>019-026>030-037>042-050>054-066-192100-
   NORTHEAST IOWA

CITY           SKY/WX    TMP DP  RH WIND       PRES   REMARKS
CEDAR RAPIDS   CLOUDY    62  44  51 SW15G26   29.99F
CHARLES CITY * SUNNY     64  45  48 SW18G29   29.90F
CLINTON *      CLOUDY    57  43  58 SW15      30.05F
DECORAH *      SUNNY     61  45  55 SW16G26   29.90F
DUBUQUE        CLOUDY    57  44  62 SW18      29.98F
MONTICELLO *   SUNNY     59  45  58 SW17      29.99F
OELWEIN *      SUNNY     63  45  51 S21       29.94F
WATERLOO       MOSUNNY   62  45  53 SW17G26   29.93F
$$

IAZ064-065-067-068-078-192100-
   EAST CENTRAL IOWA

CITY           SKY/WX    TMP DP  RH WIND       PRES   REMARKS
DAVENPORT      CLOUDY    59  41  51 S13       30.03F
IOWA CITY      CLOUDY    64  44  48 S14G22    30.02F
MT. PLEASANT * MOSUNNY   63  41  45 S10       30.03F
MUSCATINE *    SUNNY     64  41  42 S16G22    30.02F
QUAD CITIES    PTSUNNY   60  41  49 SW13      30.03F
$$

IAZ062-063-075>077-085>089-095>099-192100-
   SOUTHEAST IOWA

CITY           SKY/WX    TMP DP  RH WIND       PRES   REMARKS
BURLINGTON     SUNNY     62  44  51 SW14      30.05F
FAIRFIELD *    SUNNY     64  41  42 SW15G21   30.02F
FORT MADISON * SUNNY     64  46  52 S12       30.06F
KEOKUK *       SUNNY     63  45  51 S13       30.05F
OSKALOOSA *    PTSUNNY   64  41  42 SW16      30.01F
CENTERVILLE *  SUNNY     64  45  48 S13       30.04F
OTTUMWA        PTSUNNY   64  42  44 SW13G20   30.01F
WASHINGTON *   SUNNY     64  43  45 SW15G21   30.01F
$$

ABBREVIATIONS USED IN REMARKS
   TC - TEMPERATURES IN CELSIUS
  WCI - WIND CHILL INDEX
   HX - HEAT INDEX
  VSB - VISIBILITY
$$




USA.gov is the U.S. government's official web portal to all federal, state and local government web resources and services.